Location: Unspecified
(0.0000°N, 0.0000°E)
Time: 17:10:14
(UTC+00:00)

Courier 1B - Visible Passes

Search period start: 17 January 2017 00:00
Search period end: 27 January 2017 00:00
Orbit: 962 x 1209 km, 28.3° (Epoch: 16 January)

Date Brightness Start Highest point End Pass type
(mag) Time Alt. Az. Time Alt. Az. Time Alt. Az.
17 Jan 10.1 02:49:16 12° SSE 02:49:16 12° SSE 02:49:51 10° SSE visible
20 Jan 9.6 19:20:14 10° NNE 19:20:48 10° NNE 19:21:22 10° NNE visible
21 Jan 9.5 20:16:33 10° NNW 20:18:25 16° NNW 20:18:25 16° NNW visible
22 Jan 9.1 19:23:17 10° NNW 19:27:57 18° NNE 19:28:33 18° NNE visible
23 Jan 9.4 18:30:16 10° N 18:33:47 14° NNE 18:37:12 10° NE visible
23 Jan 8.9 20:22:03 10° NW 20:25:46 28° NNW 20:25:46 28° NNW visible
24 Jan 8.4 19:28:29 10° NNW 19:34:50 31° NNE 19:36:08 29° NE visible
24 Jan 9.9 21:22:04 10° WNW 21:23:05 15° WNW 21:23:05 15° WNW visible
25 Jan 8.9 18:35:01 10° NNW 18:40:47 24° NNE 18:46:18 10° ENE visible
25 Jan 8.1 20:28:05 10° NW 20:33:33 53° NW 20:33:33 53° NW visible
26 Jan 7.8 19:34:14 10° NW 19:41:29 56° NNE 19:44:06 37° E visible
26 Jan 9.7 21:29:00 10° W 21:31:04 19° W 21:31:04 19° W visible
